Meath Environmental Platform

Observations for Trim Patrick St

Time AQI Temp °C Hum % Pres Pa CO μg/m³ H₂S μg/m³ NO μg/m³ NO₂ μg/m³ O₃ μg/m³ SO₂ μg/m³ PM1 μg/m³ PM2.5 μg/m³ PM10 μg/m³
Sunday 9 August 2026
00:53 2 19.2 67 78,458 0 3.6 1.76 17.78 37.86 1.12 3.71 7.52 8.27
00:52 2 19.1 66 78,350 0 5.34 1.67 22.32 47.08 0.59 2.86 6.84 7.52
00:51 2 19.2 67 78,208 0 5.44 1.33 23.42 36.96 1.52 2 6.07 6.68
00:50 2 19.2 67 78,067 0 5.15 1.35 29.43 38.36 0.95 2.86 7.55 8.31
00:49 2 19.2 66 77,901 0 4.52 1.45 19.66 39.14 1.07 3.71 7.57 8.32
00:48 2 19.2 66 77,774 0 6.41 1.41 21.04 36.67 0.8 2.86 6.84 7.52
00:47 2 19.2 65 77,616 0 6.23 1.6 37.09 46.79 0.59 3.71 6.9 7.59
00:46 2 19.2 66 77,465 0 3.15 1.65 22.19 37.34 1.28 3.71 6.83 7.51
00:45 2 19.2 66 77,410 0 1.82 1.73 14.41 43.81 1.4 2 6.1 6.71
00:44 2 19.2 66 77,357 0 2.24 1.64 14.14 39.02 1.26 2.86 6.83 7.51
00:43 2 19.2 66 77,270 0 3.52 1.64 21.77 39.19 0.9 2.86 6.83 7.51
00:41 2 19.3 67 77,056 0 4.94 1.37 19.92 37.82 0.76 2.86 6.09 6.7
00:40 2 19.2 66 76,940 0 5.89 1.38 29.44 53.19 0.63 2.86 6.83 7.51
00:38 2 19.3 66 76,706 0 5.81 1.38 25.73 47.04 0.43 2.86 6.11 6.73
00:37 2 19.3 65 76,566 0 5.94 1.39 40.11 46.18 0.49 2.86 6.2 6.82
00:36 2 19.3 66 76,474 0 1.63 1.5 12.5 43.3 1.5 2.86 6.88 7.57
00:35 2 19.3 66 76,442 0 4.2 1.6 17.2 39.07 0.98 2.86 6.86 7.55
00:34 2 19.3 66 76,385 0 5.49 1.53 30.53 48.84 0.5 2.86 7.61 8.37
00:32 2 19.3 66 76,299 0 2.6 1.62 18.29 43.15 1.22 2 6.16 6.78
00:29 2 19.3 66 76,287 0 0.26 2.38 13.62 40.38 1.7 3.71 6.9 7.59